Olean, NY

9:22 AM EDT on October 18, 2017 (GMT -0400)
Cattaraugus County-Olean

Weather History for KOLE - March, 2014

Change the Weather History Date:

Sunday, March 30, 2014

  Actual Average (KBFD) Record (KBFD)
Temperature  
Mean Temperature 29 °F -  
Max Temperature 32 °F 46 °F 78 °F (1986)
Min Temperature 26 °F 30 °F 10 °F (1964)
Degree Days  
Heating Degree Days 36    
Moisture  
Dew Point 28 °F    
Average Humidity 95    
Maximum Humidity 100    
Minimum Humidity 86    
Precipitation  
Precipitation 0.00 in - - ()
Sea Level Pressure  
Sea Level Pressure 29.87 in    
Wind  
Wind Speed 0 mph (North)    
Max Wind Speed 0 mph    
Max Gust Speed -    
Visibility 6 miles    
Events Snow    
Averages and records for this station are not official NWS values.
T = Trace of Precipitation, MM = Missing Value Source: NWS Daily Summary

Daily Weather History Graph

Daily Weather History Graph

Search for Another Location

Airport or City:

Trip Planner

Search our weather history database for the weather conditions in past years. The results will help you decide how hot, cold, wet, or windy it might be!

Date:

Astronomy

Mar. 30, 2014 Rise Set
Actual Time 6:59 AM EDT 7:37 PM EDT
Civil Twilight 6:31 AM EDT 8:05 PM EDT
Nautical Twilight 5:57 AM EDT 8:38 PM EDT
Astronomical Twilight 5:23 AM EDT 9:13 PM EDT
Moon 6:44 AM EDT (3/30) 7:48 PM EDT (3/30)
Length of Visible Light 13h 33m
Length of Day
12h 37m
Waning Crescent, 0% of the Moon is Illuminated
Mar 30
Waning Crescent
Mar 30
New
Apr 7
First Quarter
Apr 15
Full
Apr 22
Last Quarter

Hourly Weather History & Observations

Time (EDT) Temp. Dew Point Humidity Pressure Visibility Wind Dir Wind Speed Gust Speed Precip Events Conditions
12:15 AM 28.4 °F 28.4 °F 100% 29.79 in 2.0 mi Calm Calm - N/A Snow Light Snow
12:35 AM 28.4 °F 28.4 °F 100% 29.80 in 4.0 mi Calm Calm - N/A Snow Light Snow
12:55 AM 28.4 °F 28.4 °F 100% 29.80 in 3.0 mi Calm Calm - N/A Snow Light Snow
1:15 AM 28.4 °F 26.6 °F 93% 29.79 in 3.0 mi Calm Calm - N/A Snow Light Snow
1:35 AM 28.4 °F 28.4 °F 100% 29.79 in 2.0 mi Calm Calm - N/A Snow Light Snow
1:55 AM 28.4 °F 28.4 °F 100% 29.80 in 1.8 mi Calm Calm - N/A Snow Light Snow
2:15 AM 28.4 °F 28.4 °F 100% 29.80 in 1.8 mi Calm Calm - N/A Snow Light Snow
2:35 AM 28.4 °F 28.4 °F 100% 29.80 in 2.5 mi Calm Calm - N/A Snow Light Snow
2:55 AM 28.4 °F 26.6 °F 93% 29.79 in 2.5 mi Calm Calm - N/A Snow Light Snow
3:15 AM 28.4 °F 26.6 °F 93% 29.79 in 3.0 mi Calm Calm - N/A Snow Light Snow
3:35 AM 28.4 °F 26.6 °F 93% 29.78 in 4.0 mi Calm Calm - N/A Snow Light Snow
3:55 AM 28.4 °F 26.6 °F 93% 29.78 in 4.0 mi Calm Calm - N/A Snow Light Snow
4:15 AM 28.4 °F 26.6 °F 93% 29.78 in 7.0 mi Calm Calm - N/A Snow Light Snow
4:35 AM 28.4 °F 26.6 °F 93% 29.78 in 3.0 mi Calm Calm - N/A Snow Light Snow
4:55 AM 28.4 °F 26.6 °F 93% 29.80 in 2.0 mi Calm Calm - N/A Snow Light Snow
5:15 AM 28.4 °F 26.6 °F 93% 29.80 in 1.8 mi Calm Calm - N/A Snow Light Snow
5:35 AM 26.6 °F 26.6 °F 100% 29.80 in 1.5 mi Calm Calm - N/A Snow Light Snow
5:55 AM 26.6 °F 26.6 °F 100% 29.81 in 2.0 mi Calm Calm - N/A Snow Light Snow
6:15 AM 26.6 °F 26.6 °F 100% 29.81 in 3.0 mi Calm Calm - N/A Snow Light Snow
6:35 AM 26.6 °F 26.6 °F 100% 29.80 in 3.0 mi Calm Calm - N/A Snow Light Snow
6:55 AM 26.6 °F 26.6 °F 100% 29.81 in 7.0 mi Calm Calm - N/A Snow Light Snow
7:15 AM 26.6 °F 26.6 °F 100% 29.82 in 7.0 mi Calm Calm - N/A   Overcast
7:35 AM 26.6 °F 26.6 °F 100% 29.82 in 7.0 mi Calm Calm - N/A   Overcast
7:55 AM 26.6 °F 26.6 °F 100% 29.83 in 4.0 mi Calm Calm - N/A   Overcast
8:15 AM 26.6 °F 26.6 °F 100% 29.84 in 3.0 mi Calm Calm - N/A   Overcast
8:35 AM 26.6 °F 24.8 °F 93% 29.85 in 3.0 mi Calm Calm - N/A   Overcast
8:55 AM 26.6 °F 24.8 °F 93% 29.85 in 3.0 mi Calm Calm - N/A Snow Light Snow
9:15 AM 26.6 °F 24.8 °F 93% 29.86 in 5.0 mi Calm Calm - N/A   Overcast
9:35 AM 26.6 °F 24.8 °F 93% 29.87 in 7.0 mi Calm Calm - N/A   Overcast
9:55 AM 26.6 °F 24.8 °F 93% 29.87 in 5.0 mi Calm Calm - N/A Snow Light Snow
10:15 AM 26.6 °F 26.6 °F 100% 29.88 in 3.0 mi Calm Calm - N/A   Overcast
10:35 AM 26.6 °F 26.6 °F 100% 29.87 in 1.8 mi Calm Calm - N/A   Overcast
10:55 AM 26.6 °F 24.8 °F 93% 29.88 in 4.0 mi Calm Calm - N/A   Overcast
11:15 AM 26.6 °F 26.6 °F 100% 29.88 in 2.0 mi Calm Calm - N/A Snow Light Snow
11:35 AM 26.6 °F 26.6 °F 100% 29.88 in 1.5 mi Calm Calm - N/A Snow Light Snow
11:55 AM 26.6 °F 26.6 °F 100% 29.88 in 1.8 mi Calm Calm - N/A Snow Light Snow
12:15 PM 26.6 °F 26.6 °F 100% 29.88 in 1.0 mi Calm Calm - N/A Snow Light Snow
12:35 PM 28.4 °F 26.6 °F 93% 29.87 in 1.8 mi Calm Calm - N/A Snow Light Snow
12:55 PM 28.4 °F 26.6 °F 93% 29.87 in 7.0 mi Calm Calm - N/A   Overcast
1:15 PM 28.4 °F 26.6 °F 93% 29.87 in 10.0 mi Calm Calm - N/A   Overcast
1:35 PM 28.4 °F 26.6 °F 93% 29.87 in 7.0 mi Calm Calm - N/A   Overcast
1:55 PM 28.4 °F 26.6 °F 93% 29.87 in 7.0 mi Calm Calm - N/A   Overcast
2:15 PM 28.4 °F 28.4 °F 100% 29.87 in 7.0 mi Calm Calm - N/A   Overcast
2:35 PM 28.4 °F 28.4 °F 100% 29.86 in 10.0 mi Calm Calm - N/A   Overcast
2:55 PM 30.2 °F 28.4 °F 93% 29.86 in 10.0 mi Calm Calm - N/A   Overcast
3:15 PM 30.2 °F 30.2 °F 100% 29.85 in 10.0 mi Calm Calm - N/A   Overcast
3:35 PM 30.2 °F 30.2 °F 100% 29.86 in 10.0 mi Calm Calm - N/A   Overcast
3:55 PM 30.2 °F 30.2 °F 100% 29.87 in 10.0 mi Calm Calm - N/A   Overcast
4:15 PM 32.0 °F 30.2 °F 93% 29.87 in 10.0 mi Calm Calm - N/A   Overcast
4:35 PM 32.0 °F 30.2 °F 93% 29.87 in 10.0 mi Calm Calm - N/A   Overcast
4:55 PM 32.0 °F 30.2 °F 93% 29.88 in 10.0 mi Calm Calm - N/A   Overcast
5:15 PM 32.0 °F 30.2 °F 93% 29.88 in 10.0 mi Calm Calm - N/A   Overcast
5:35 PM 32.0 °F 30.2 °F 93% 29.89 in 10.0 mi Calm Calm - N/A   Overcast
5:55 PM 32.0 °F 30.2 °F 93% 29.89 in 10.0 mi Calm Calm - N/A   Overcast
6:15 PM 32.0 °F 30.2 °F 93% 29.90 in 10.0 mi Calm Calm - N/A   Overcast
6:35 PM 32.0 °F 30.2 °F 93% 29.91 in 10.0 mi Calm Calm - N/A   Overcast
6:55 PM 32.0 °F 30.2 °F 93% 29.91 in 10.0 mi Calm Calm - N/A   Overcast
7:15 PM 32.0 °F 30.2 °F 93% 29.92 in 10.0 mi Calm Calm - N/A   Overcast
7:35 PM 32.0 °F 30.2 °F 93% 29.93 in 10.0 mi Calm Calm - N/A   Overcast
7:55 PM 32.0 °F 30.2 °F 93% 29.93 in 10.0 mi Calm Calm - N/A   Overcast
8:15 PM 32.0 °F 30.2 °F 93% 29.93 in 10.0 mi Calm Calm - N/A   Overcast
8:35 PM 32.0 °F 30.2 °F 93% 29.94 in 10.0 mi Calm Calm - N/A   Scattered Clouds
8:55 PM 32.0 °F 30.2 °F 93% 29.95 in 10.0 mi Calm Calm - N/A   Clear
9:15 PM 30.2 °F 28.4 °F 93% 29.96 in 10.0 mi Calm Calm - N/A   Clear
9:35 PM 30.2 °F 28.4 °F 93% 29.96 in 10.0 mi Calm Calm - N/A   Clear
9:55 PM 30.2 °F 28.4 °F 93% 29.96 in 10.0 mi Calm Calm - N/A   Clear
10:15 PM 30.2 °F 28.4 °F 93% 29.96 in 10.0 mi Calm Calm - N/A   Clear
10:35 PM 30.2 °F 28.4 °F 93% 29.97 in 10.0 mi Calm Calm - N/A   Clear
10:55 PM 30.2 °F 26.6 °F 86% 29.98 in 10.0 mi Calm Calm - N/A   Clear
11:15 PM 30.2 °F 26.6 °F 86% 29.99 in 10.0 mi Calm Calm - N/A   Clear
11:35 PM 28.4 °F 26.6 °F 93% 29.99 in 10.0 mi Calm Calm - N/A   Clear
11:55 PM 28.4 °F 26.6 °F 93% 29.99 in 10.0 mi Calm Calm - N/A   Clear